Monroe, MI

4:41 PM EDT on April 26, 2017 (GMT -0400)
Custer

Weather History for KTTF - January, 2012

Change the Weather History Date:

Friday, January 13, 2012

  Actual Average Record
Temperature  
Mean Temperature 24 °F -  
Max Temperature 26 °F 30 °F 61 °F (1950)
Min Temperature 21 °F 16 °F -6 °F (1977)
Degree Days  
Heating Degree Days 42    
Moisture  
Dew Point 21 °F    
Average Humidity 89    
Maximum Humidity 100    
Minimum Humidity 80    
Precipitation  
Precipitation 0.00 in - - ()
Sea Level Pressure  
Sea Level Pressure 29.60 in    
Wind  
Wind Speed 19 mph (WSW)    
Max Wind Speed 26 mph    
Max Gust Speed 36 mph    
Visibility 4 miles    
Events Snow    
Averages and records for this station are not official NWS values.
T = Trace of Precipitation, MM = Missing Value Source: NWS Daily Summary

Daily Weather History Graph

Daily Weather History Graph

Search for Another Location

Airport or City:

Trip Planner

Search our weather history database for the weather conditions in past years. The results will help you decide how hot, cold, wet, or windy it might be!

Date:

Astronomy

Jan. 13, 2012 Rise Set
Actual Time 8:00 AM EST 5:24 PM EST
Civil Twilight 7:29 AM EST 5:55 PM EST
Nautical Twilight 6:54 AM EST 6:30 PM EST
Astronomical Twilight 6:21 AM EST 7:03 PM EST
Moon 10:42 PM EST (1/13) 10:08 AM EST (1/13)
Length of Visible Light 10h 26m
Length of Day
9h 24m
Waning Gibbous, 79% of the Moon is Illuminated
Jan 13
Waning Gibbous
Jan 16
Last Quarter
Jan 23
New
Jan 30
First Quarter
Feb 7
Full

Hourly Weather History & Observations

Time (EST) Temp. Windchill Dew Point Humidity Pressure Visibility Wind Dir Wind Speed Gust Speed Precip Events Conditions
12:10 AM 21.2 °F 6.0 °F 17.6 °F 86% 29.40 in 10.0 mi SW 19.6 mph 32.2 mph N/A   Overcast
12:30 AM 21.2 °F 4.5 °F 15.8 °F 80% 29.40 in 10.0 mi WSW 24.2 mph 32.2 mph N/A   Overcast
12:50 AM 21.2 °F 3.9 °F 15.8 °F 80% 29.40 in 10.0 mi WSW 26.5 mph 35.7 mph N/A   Overcast
1:11 AM 21.2 °F 5.2 °F 15.8 °F 80% 29.40 in 10.0 mi SW 21.9 mph 34.5 mph N/A Snow Light Snow
1:31 AM 21.2 °F 4.5 °F 15.8 °F 80% 29.40 in 10.0 mi WSW 24.2 mph 29.9 mph N/A   Overcast
1:51 AM 21.2 °F 7.8 °F 15.8 °F 80% 29.41 in 10.0 mi SW 15.0 mph 31.1 mph N/A Snow Light Snow
2:11 AM 21.2 °F 5.6 °F 15.8 °F 80% 29.41 in 10.0 mi SW 20.7 mph 28.8 mph N/A Snow Light Snow
2:33 AM 21.2 °F 6.4 °F 15.8 °F 80% 29.42 in 7.0 mi SW 18.4 mph 25.3 mph N/A Snow Light Snow
3:13 AM 21.2 °F 5.6 °F 15.8 °F 80% 29.42 in 7.0 mi SW 20.7 mph 25.3 mph N/A Snow Light Snow
3:34 AM 21.2 °F 6.4 °F 15.8 °F 80% 29.42 in 7.0 mi SW 18.4 mph 24.2 mph N/A Snow Light Snow
3:54 AM 21.2 °F 6.4 °F 15.8 °F 80% 29.42 in 5.0 mi SW 18.4 mph 27.6 mph N/A Snow Light Snow
4:14 AM 21.2 °F 8.3 °F 17.6 °F 86% 29.41 in 4.0 mi SW 13.8 mph 19.6 mph N/A Snow Light Snow
4:34 AM 21.2 °F 6.8 °F 17.6 °F 86% 29.41 in 5.0 mi SW 17.3 mph 25.3 mph N/A Snow Light Snow
4:54 AM 21.2 °F 7.3 °F 17.6 °F 86% 29.41 in 3.0 mi SW 16.1 mph 23.0 mph N/A Snow Light Snow
5:14 AM 21.2 °F 6.4 °F 17.6 °F 86% 29.41 in 3.0 mi SW 18.4 mph 26.5 mph N/A Snow Light Snow
5:34 AM 21.2 °F 6.8 °F 17.6 °F 86% 29.41 in 5.0 mi SW 17.3 mph 25.3 mph N/A Snow Light Snow
5:54 AM 21.2 °F 7.8 °F 17.6 °F 86% 29.41 in 10.0 mi SW 15.0 mph - N/A Snow Light Snow
6:14 AM 21.2 °F 8.9 °F 17.6 °F 86% 29.42 in 10.0 mi SW 12.7 mph 19.6 mph N/A   Overcast
6:35 AM 21.2 °F 8.9 °F 17.6 °F 86% 29.42 in 4.0 mi SW 12.7 mph 19.6 mph N/A Snow Light Snow
6:55 AM 21.2 °F 9.5 °F 19.4 °F 93% 29.43 in 3.0 mi SW 11.5 mph - N/A Snow Light Snow
7:15 AM 21.2 °F 10.9 °F 19.4 °F 93% 29.44 in 2.5 mi SW 9.2 mph - N/A Snow Light Snow
7:35 AM 21.2 °F 10.1 °F 21.2 °F 100% 29.45 in 1.8 mi SW 10.4 mph - N/A Snow Light Snow
8:10 AM 24.8 °F 13.4 °F 24.8 °F 100% 29.46 in 2.5 mi WSW 12.7 mph - N/A Snow Light Snow
8:30 AM 24.8 °F 14.0 °F 24.8 °F 100% 29.47 in 2.5 mi WSW 11.5 mph - N/A Snow Light Snow
9:11 AM 24.8 °F 11.1 °F 24.8 °F 100% 29.50 in 3.0 mi WSW 18.4 mph 24.2 mph N/A Snow Light Snow
9:31 AM 24.8 °F 11.1 °F 24.8 °F 100% 29.51 in 1.8 mi WSW 18.4 mph 25.3 mph N/A Snow Light Snow
9:51 AM 24.8 °F 10.3 °F 24.8 °F 100% 29.52 in 2.5 mi WSW 20.7 mph 26.5 mph N/A Snow Light Snow
10:11 AM 24.8 °F 9.6 °F 24.8 °F 100% 29.54 in 1.8 mi WSW 23.0 mph 28.8 mph N/A Snow Light Snow
10:31 AM 26.6 °F 12.0 °F 24.8 °F 93% 29.55 in 7.0 mi WSW 23.0 mph 28.8 mph N/A   Overcast
10:52 AM 24.8 °F 10.0 °F 23.0 °F 93% 29.56 in 2.0 mi WSW 21.9 mph 28.8 mph N/A Snow Light Snow
11:12 AM 24.8 °F 10.3 °F 23.0 °F 93% 29.57 in 1.5 mi WSW 20.7 mph 28.8 mph N/A Snow Light Snow
11:32 AM 24.8 °F 9.0 °F 21.2 °F 86% 29.58 in 3.0 mi WSW 25.3 mph 32.2 mph N/A Snow Light Snow
11:52 AM 24.8 °F 9.6 °F 21.2 °F 86% 29.59 in 1.8 mi WSW 23.0 mph 31.1 mph N/A Snow Light Snow
12:12 PM 24.8 °F 11.1 °F 23.0 °F 93% 29.59 in 1.5 mi WSW 18.4 mph 27.6 mph N/A Snow Light Snow
12:32 PM 24.8 °F 10.7 °F 23.0 °F 93% 29.60 in 2.0 mi WSW 19.6 mph 27.6 mph N/A Snow Light Snow
12:52 PM 24.8 °F 11.1 °F 23.0 °F 93% 29.61 in 2.0 mi WSW 18.4 mph 26.5 mph N/A Snow Light Snow
1:13 PM 24.8 °F 10.7 °F 23.0 °F 93% 29.62 in 2.5 mi WSW 19.6 mph 28.8 mph N/A Snow Light Snow
1:33 PM 24.8 °F 10.7 °F 23.0 °F 93% 29.63 in 3.0 mi WSW 19.6 mph 25.3 mph N/A Snow Light Snow
1:53 PM 24.8 °F 11.5 °F 23.0 °F 93% 29.64 in 2.0 mi WSW 17.3 mph 26.5 mph N/A Snow Light Snow
2:33 PM 24.8 °F 11.9 °F 24.8 °F 100% 29.66 in 1.8 mi WSW 16.1 mph 20.7 mph N/A Snow Light Snow
2:54 PM 24.8 °F 10.7 °F 24.8 °F 100% 29.68 in 1.5 mi WSW 19.6 mph 26.5 mph N/A Snow Light Snow
3:14 PM 24.8 °F 11.1 °F 23.0 °F 93% 29.70 in 1.5 mi WSW 18.4 mph 27.6 mph N/A Snow Light Snow
3:34 PM 24.8 °F 10.7 °F 23.0 °F 93% 29.71 in 1.2 mi WSW 19.6 mph 24.2 mph N/A Snow Light Snow
3:54 PM 24.8 °F 10.3 °F 21.2 °F 86% 29.73 in 1.2 mi WSW 20.7 mph 28.8 mph N/A Snow Light Snow
4:14 PM 24.8 °F 11.1 °F 21.2 °F 86% 29.75 in 1.8 mi WSW 18.4 mph 27.6 mph N/A Snow Light Snow
4:34 PM 24.8 °F 10.3 °F 21.2 °F 86% 29.76 in 2.0 mi WSW 20.7 mph 28.8 mph N/A Snow Light Snow
4:54 PM 24.8 °F 10.3 °F 21.2 °F 86% 29.78 in 2.5 mi WSW 20.7 mph 27.6 mph N/A Snow Light Snow
5:15 PM 24.8 °F 10.7 °F 21.2 °F 86% 29.79 in 3.0 mi WSW 19.6 mph 25.3 mph N/A Snow Light Snow
5:35 PM 24.8 °F 11.5 °F 21.2 °F 86% 29.80 in 3.0 mi WSW 17.3 mph 24.2 mph N/A Snow Light Snow
5:55 PM 24.8 °F 11.1 °F 23.0 °F 93% 29.81 in 3.0 mi WSW 18.4 mph 24.2 mph N/A Snow Light Snow
6:15 PM 24.8 °F 10.7 °F 23.0 °F 93% 29.82 in 3.0 mi WSW 19.6 mph 25.3 mph N/A Snow Light Snow
6:35 PM 24.8 °F 12.9 °F 23.0 °F 93% 29.83 in 3.0 mi WSW 13.8 mph 21.9 mph N/A Snow Light Snow
6:50 PM 24.8 °F 12.9 °F 21.2 °F 86% 29.84 in 5.0 mi WSW 13.8 mph - N/A Snow Light Snow
7:10 PM 24.8 °F 11.5 °F 21.2 °F 86% 29.85 in 2.5 mi WSW 17.3 mph 21.9 mph N/A Snow Light Snow
7:31 PM 23.0 °F 9.6 °F 23.0 °F 100% 29.86 in 2.5 mi WSW 16.1 mph - N/A Snow Light Snow
7:51 PM 24.8 °F 13.4 °F 21.2 °F 86% 29.87 in 7.0 mi WSW 12.7 mph - N/A Snow Light Snow
8:11 PM 24.8 °F 12.9 °F 21.2 °F 86% 29.88 in 7.0 mi WSW 13.8 mph 18.4 mph N/A Snow Light Snow
8:31 PM 24.8 °F 14.0 °F 21.2 °F 86% 29.88 in 4.0 mi WSW 11.5 mph 17.3 mph N/A Snow Light Snow
8:51 PM 24.8 °F 12.9 °F 21.2 °F 86% 29.88 in 7.0 mi WSW 13.8 mph 19.6 mph N/A Snow Light Snow
9:11 PM 24.8 °F 12.9 °F 21.2 °F 86% 29.89 in 4.0 mi WSW 13.8 mph 19.6 mph N/A Snow Light Snow
9:52 PM 24.8 °F 12.9 °F 21.2 °F 86% 29.90 in 10.0 mi WSW 13.8 mph 18.4 mph N/A Snow Light Snow
10:12 PM 24.8 °F 12.9 °F 21.2 °F 86% 29.90 in 10.0 mi WSW 13.8 mph - N/A Snow Light Snow
10:32 PM 24.8 °F 11.9 °F 21.2 °F 86% 29.90 in 7.0 mi WSW 16.1 mph - N/A Snow Light Snow
11:12 PM 24.8 °F 12.4 °F 21.2 °F 86% 29.92 in 4.0 mi West 15.0 mph - N/A Snow Light Snow
11:32 PM 24.8 °F 12.9 °F 21.2 °F 86% 29.93 in 4.0 mi West 13.8 mph 17.3 mph N/A Snow Light Snow